Weather History for Gainesville, GA

Change the Weather History Date:

Sunday, March 3, 2013

  Actual Average Record
Temperature  
Mean Temperature 34 °F 49 °F  
Max Temperature 41 °F 59 °F 80 °F (1976)
Min Temperature 28 °F 40 °F 10 °F (1980)
Degree Days  
Heating Degree Days 30 16  
Month to date heating degree days 48  
Since 1 July heating degree days 2512  
Cooling Degree Days 0 0  
Month to date cooling degree days 0  
Year to date cooling degree days 0  
Moisture  
Dew Point 16 °F    
Average Humidity 52    
Maximum Humidity 66    
Minimum Humidity 36    
Precipitation  
Precipitation 0.00 in 0.19 in 1.58 in (1990)
Month to date precipitation 0.57  
Year to date precipitation 10.47  
Sea Level Pressure  
Sea Level Pressure 30.01 in    
Wind  
Wind Speed 10 mph (WNW)    
Max Wind Speed 16 mph    
Max Gust Speed 24 mph    
Visibility 10 miles    
Events      
T = Trace of Precipitation, MM = Missing Value Source: NWS Daily Summary

Daily Weather History Graph

Daily Weather History Graph

Search for Another Location

Airport:

Trip Planner

Search our weather history database for the weather conditions in past years. The results will help you decide how hot, cold, wet, or windy it might be!

Date:

Astronomy

Mar. 03, 2013 Rise Set
Actual Time 7:01 AM EST 6:33 PM EST
Civil Twilight 6:36 AM EST 6:58 PM EST
Nautical Twilight 6:07 AM EST 7:27 PM EST
Astronomical Twilight 5:38 AM EST 7:56 PM EST
Moon No Moon Rise 10:32 AM EST (3/3)
Length of Visible Light 12h 22m
Length of Day
11h 32m
Waning Gibbous, 64% of the Moon is Illuminated
Mar 3
Waning Gibbous
Mar 4
Last Quarter
Mar 11
New
Mar 19
First Quarter
Mar 27
Full

Hourly Weather History & Observations

Time (EST) Temp. Windchill Dew Point Humidity Pressure Visibility Wind Dir Wind Speed Gust Speed Precip Events Conditions
12:53 AM 30.0 °F 21.7 °F 18.0 °F 61% 29.99 in 10.0 mi NW 9.2 mph - N/A   Clear
1:53 AM 30.0 °F 21.7 °F 17.1 °F 59% 30.00 in 10.0 mi WNW 9.2 mph - N/A   Mostly Cloudy
2:53 AM 30.0 °F 21.7 °F 17.1 °F 59% 29.98 in 10.0 mi NW 9.2 mph - N/A   Partly Cloudy
3:53 AM 28.9 °F 19.2 °F 16.0 °F 58% 29.98 in 10.0 mi NW 11.5 mph - N/A   Clear
4:53 AM 28.9 °F 20.4 °F 17.1 °F 61% 29.98 in 10.0 mi NW 9.2 mph 19.6 mph N/A   Clear
5:53 AM 28.0 °F 19.3 °F 18.0 °F 66% 29.99 in 10.0 mi NW 9.2 mph - N/A   Clear
6:53 AM 28.0 °F 20.0 °F 17.1 °F 63% 29.99 in 10.0 mi NW 8.1 mph - N/A   Clear
7:53 AM 28.9 °F 18.2 °F 15.1 °F 56% 30.01 in 10.0 mi WNW 13.8 mph 20.7 mph N/A   Clear
8:53 AM 30.9 °F 20.7 °F 15.1 °F 52% 30.02 in 10.0 mi WNW 13.8 mph - N/A   Clear
9:53 AM 32.0 °F 22.5 °F 16.0 °F 52% 30.02 in 10.0 mi WNW 12.7 mph 19.6 mph N/A   Partly Cloudy
10:53 AM 34.0 °F 26.6 °F 15.1 °F 46% 30.01 in 10.0 mi West 9.2 mph 19.6 mph N/A   Clear
11:53 AM 35.1 °F 28.6 °F 16.0 °F 46% 30.01 in 10.0 mi West 8.1 mph 20.7 mph N/A   Clear
12:53 PM 37.9 °F 29.6 °F 17.1 °F 43% 30.01 in 10.0 mi NW 13.8 mph 21.9 mph N/A   Clear
1:53 PM 39.0 °F 31.4 °F 16.0 °F 39% 29.99 in 10.0 mi WNW 12.7 mph 20.7 mph N/A   Clear
2:53 PM 41.0 °F 33.9 °F 16.0 °F 36% 29.98 in 10.0 mi NNW 12.7 mph 20.7 mph N/A   Clear
3:53 PM 39.9 °F 31.4 °F 16.0 °F 38% 29.98 in 10.0 mi WNW 16.1 mph 24.2 mph N/A   Clear
5:53 PM 37.0 °F 28.1 °F 16.0 °F 42% 30.01 in 10.0 mi NW 15.0 mph - N/A   Clear
6:53 PM 34.0 °F 25.5 °F 17.1 °F 50% 30.04 in 10.0 mi West 11.5 mph 19.6 mph N/A   Clear
7:53 PM 33.1 °F 24.9 °F 17.1 °F 52% 30.06 in 10.0 mi NW 10.4 mph - N/A   Clear
8:53 PM 32.0 °F 24.2 °F 16.0 °F 52% 30.06 in 10.0 mi NW 9.2 mph - N/A   Clear
9:53 PM 30.9 °F 22.8 °F 16.0 °F 54% 30.07 in 10.0 mi West 9.2 mph - N/A   Clear
10:53 PM 30.9 °F 23.5 °F 16.0 °F 54% 30.07 in 10.0 mi WNW 8.1 mph - N/A   Clear
11:53 PM 30.9 °F 24.3 °F 16.0 °F 54% 30.06 in 10.0 mi WNW 6.9 mph - N/A   Clear